Terminal Aerodrome Forecast
Issued by NWS

Home | Current Version | Previous Version | Text Only | Print | Product List | Glossary On
Versions: 1 2 3 4 5 6 7 8 9 10 11 12 13 14 15 16 17 18 19 20 21 22
000
FTUS43 KDLH 260500
TAFBRD
TAF
KBRD 260520Z 2606/2706 26003KT P6SM SCT050
     FM260900 VRB03KT P6SM SKC
     FM261700 24011G16KT P6SM FEW080
     FM262000 24013G22KT P6SM VCSH SCT050
     FM270100 29012KT P6SM VCSH BKN050=

USA.gov is the U.S. government's official web portal to all federal, state and local government web resources and services.